Location: *
(43.9900°N, 3.4811°E)
Time: 15:02:53
(UTC+00:00)

Cosmos 1867 - Pass Details

Date: 25 August 2019
Orbit: 775 x 800 km, 65.0° (Epoch: 22 October)

Event Time Altitude Azimuth Distance (km) Brightness Sun altitude
Rises 21:42:23 0° 325° (NW) 3,316 8.1 -28.4°
Reaches altitude 10° 21:44:49 10° 325° (NW) 2,382 7.0 -28.6°
Enters shadow 21:49:44 72° 313° (NW) 843 3.7 -29.1°
